Погода в Ширкове

Россия / Курская область     51°46′30″N   35°13′06″E
темп.,
°C
ветер,
м/с
пор.,
м/с
влажн.,
%
обл.,
%
осадки,
мм/ч
давл.,
гПа
погр.,
м
23 октября, сб
сб2300:00+7юз386946 0.0 1011150
03:00+8зюз513531 0.0 1011356
06:00+5юз312665 0.0 1011238
09:00+7юз5116344 0.0 1011480
12:00+11з7124418 0.0 10121429
15:00+10з81250100 0.1 10131878
18:00+7з611605 0.0 1015442
21:00+5з511685 0.0 1017500
24 октября, вс
вс2400:00+3зюз4107737 0.0 1018266
03:00+3зюз5118064 0.0 1018257
06:00+5зюз41065100 0.0 1018353
09:00+5з51074100 0.1 1020597
12:00+7зсз7864100 0.1 10211272
15:00+5зсз5865100 0.1 10221228
18:00+5ссз6106726 0.1 10231038
21:00+2сз5107176 0.1 1026396
25 октября, пн
пн2500:000сз39755 0.0 1027239
03:00−1ссз39825 0.0 1029227
06:00−2ссз34926 0.0 103179
09:000ссз248111 0.0 1033174
12:00+4ссз33565 0.0 1033753
15:00+5зсз23475 0.0 1032979
18:00+2з22605 0.0 103210
21:00+1зюз22685 0.0 103314
26 октября, вт
вт2600:000юз22720 0.0 103324
03:00−1юз23755 0.0 103333
06:00−2юз23775 0.0 103228
09:00+1юз376658 0.0 1032183
12:00+6юз57455 0.0 1031555
15:00+8юз574035 0.0 1029774
18:00+4ююз37545 0.0 1028108
21:00+3ююз410585 0.0 1028191
27 октября, ср
ср2700:00+2ююз410595 0.0 1028198
03:00+1ююз411585 0.0 1027214
06:00+1ююз411595 0.0 1026222
09:00+3ююз51352100 0.0 1025358
12:00+7юз71144100 0.0 1024612
15:00+8юз61150100 0.0 1022736
18:00+6зюз41066100 0.0 1022314
21:00+5з41086100 0.3 1021430